Northport, AL

4:45 AM CDT on September 30, 2016 (GMT -0500)
Tuscaloosa Municipal

Weather History for KTCL - June, 2013

Change the Weather History Date:

Thursday, June 20, 2013

  Actual Average Record
Temperature  
Mean Temperature 81 °F 79 °F  
Max Temperature 91 °F 90 °F 98 °F (1953)
Min Temperature 70 °F 69 °F 55 °F (1985)
Cooling Degree Days 15    
Growing Degree Days 30 (Base 50)    
Moisture  
Dew Point 68 °F    
Average Humidity 72    
Maximum Humidity 97    
Minimum Humidity 46    
Precipitation  
Precipitation 0.00 in 0.17 in 1.47 in (1951)
Month to date precipitation 4.95 3.08  
Year to date precipitation 26.91 26.48  
Sea Level Pressure  
Sea Level Pressure 30.10 in    
Wind  
Wind Speed 4 mph (ENE)    
Max Wind Speed 12 mph    
Max Gust Speed 15 mph    
Visibility 9 miles    
Events      
T = Trace of Precipitation, MM = Missing Value Source: NWS Daily Summary

Daily Weather History Graph

Daily Weather History Graph

Search for Another Location

Airport or City:

Trip Planner

Search our weather history database for the weather conditions in past years. The results will help you decide how hot, cold, wet, or windy it might be!

Date:

Astronomy

Jun. 20, 2013 Rise Set
Actual Time 5:41 AM CDT 8:02 PM CDT
Civil Twilight 5:12 AM CDT 8:31 PM CDT
Nautical Twilight 4:37 AM CDT 9:06 PM CDT
Astronomical Twilight 3:58 AM CDT 9:45 PM CDT
Moon 5:09 PM CDT (6/20) 3:01 AM CDT (6/20)
Length of Visible Light 15h 18m
Length of Day
14h 21m
Waxing Gibbous, 89% of the Moon is Illuminated
Jun 20
Waxing Gibbous
Jun 23
Full
Jun 29
Last Quarter
Jul 8
New
Jul 15
First Quarter

Hourly Weather History & Observations

Time (CDT) Temp. Heat Index Dew Point Humidity Pressure Visibility Wind Dir Wind Speed Gust Speed Precip Events Conditions
12:53 AM 72.0 °F - 70.0 °F 93% 30.04 in 6.0 mi Calm Calm - N/A   Clear
1:53 AM 71.1 °F - 69.1 °F 93% 30.04 in 7.0 mi Calm Calm - N/A   Clear
2:53 AM 71.1 °F - 68.0 °F 90% 30.05 in 8.0 mi Calm Calm - N/A   Clear
3:53 AM 71.1 °F - 68.0 °F 90% 30.06 in 8.0 mi Calm Calm - N/A   Partly Cloudy
4:53 AM 71.1 °F - 68.0 °F 90% 30.07 in 8.0 mi Calm Calm - N/A   Mostly Cloudy
5:53 AM 70.0 °F - 68.0 °F 93% 30.08 in 6.0 mi Calm Calm - N/A   Clear
6:53 AM 73.0 °F - 69.1 °F 87% 30.09 in 9.0 mi ENE 4.6 mph - N/A   Clear
7:53 AM 78.1 °F - 70.0 °F 76% 30.11 in 10.0 mi East 3.5 mph - N/A   Clear
8:53 AM 81.0 °F 84.4 °F 70.0 °F 69% 30.13 in 10.0 mi Calm Calm - N/A   Clear
9:53 AM 82.9 °F 87.0 °F 70.0 °F 65% 30.14 in 10.0 mi North 3.5 mph - N/A   Clear
10:53 AM 84.9 °F 88.2 °F 68.0 °F 57% 30.14 in 10.0 mi Variable 3.5 mph - N/A   Partly Cloudy
11:53 AM 87.1 °F 91.3 °F 69.1 °F 55% 30.14 in 10.0 mi Variable 5.8 mph - N/A   Partly Cloudy
12:53 PM 87.1 °F 92.0 °F 70.0 °F 57% 30.12 in 10.0 mi East 4.6 mph - N/A   Scattered Clouds
1:53 PM 89.1 °F 92.9 °F 68.0 °F 50% 30.11 in 10.0 mi ENE 6.9 mph - N/A   Partly Cloudy
2:53 PM 89.1 °F 93.7 °F 69.1 °F 52% 30.10 in 10.0 mi ENE 8.1 mph - N/A   Partly Cloudy
3:53 PM 90.0 °F 93.6 °F 68.0 °F 48% 30.09 in 10.0 mi ENE 8.1 mph - N/A   Partly Cloudy
4:53 PM 89.1 °F 92.1 °F 66.9 °F 48% 30.08 in 10.0 mi ENE 6.9 mph - N/A   Clear
5:53 PM 88.0 °F 89.3 °F 64.0 °F 45% 30.07 in 10.0 mi East 8.1 mph - N/A   Clear
6:53 PM 87.1 °F 89.2 °F 66.0 °F 49% 30.07 in 10.0 mi ENE 5.8 mph - N/A   Clear
7:53 PM 84.0 °F 86.3 °F 66.0 °F 55% 30.09 in 10.0 mi East 4.6 mph - N/A   Clear
8:53 PM 79.0 °F - 69.1 °F 72% 30.09 in 10.0 mi ENE 3.5 mph - N/A   Clear
9:53 PM 79.0 °F - 68.0 °F 69% 30.11 in 10.0 mi ENE 4.6 mph - N/A   Clear
10:53 PM 77.0 °F - 68.0 °F 74% 30.14 in 10.0 mi ENE 5.8 mph - N/A   Clear
11:53 PM 77.0 °F - 66.9 °F 71% 30.14 in 10.0 mi ENE 5.8 mph - N/A   Clear